Location: Arcueil
(48.7999°N, 2.3326°E)
Time: 21:19:53
(UTC+00:00)

JY1SAT - Pass Details

Date: 27 June 2024
Orbit: 535 x 549 km, 97.5° (Epoch: 18 July)

Event Time Altitude Azimuth Distance (km) Brightness Sun altitude
Exits shadow 20:35:16 - 163° (SSE) 2,363 ? -5.4°
Reaches altitude 10° 20:36:34 10° 163° (SSE) 1,824 ? -5.6°
Maximum altitude 20:40:31 84° 76° (ENE) 563 ? -6.0°
Drops below altitude 10° 20:44:30 10° 348° (NNW) 1,844 ? -6.5°
Sets 20:46:39 0° 348° (NNW) 2,744 ? -6.7°
